Regional Weather Roundup
Issued by NWS

Home | Current Version | Previous Version | Graphics & Text | Print | Product List | Glossary On
Versions: 1 2 3 4 5 6 7 8 9 10 11 12 13 14 15 16 17 18 19 20 21 22 23 24 25 26 27 28 29 30 31 32 33 34 35 36 37 38 39 40 41 42 43 44 45 46 47 48 49 50
000
ASUS43 KMKX 040000
RWRWI

WISCONSIN REGIONAL WEATHER ROUNDUP
NATIONAL WEATHER SERVICE MILWAUKEE/SULLIVAN WI
700 PM CDT THU SEP 03 2015

NOTE: "FAIR" INDICATES FEW OR NO CLOUDS BELOW 12,000 FEET WITH NO
SIGNIFICANT WEATHER AND/OR OBSTRUCTIONS TO VISIBILITY.

WIZ001-002-006>008-014>016-023>028-040100-
NORTHWEST WISCONSIN

CITY           SKY/WX    TMP DP  RH WIND       PRES   REMARKS
SUPERIOR ARPT  PTCLDY    60  58  91 NE9       29.96S
ASHLAND        CLEAR     61  61 100 N7        29.97S
6HR MIN TEMP:  61; 6HR MAX TEMP:  72;

HAYWARD        CLEAR     79  65  62 E3        29.94S HX  81
6HR MIN TEMP:  74; 6HR MAX TEMP:  81;

SIREN          CLEAR     80  67  64 E5        29.91F HX  83
CUMBERLAND     CLEAR     77  64  65 E3        29.93S
RICE LAKE      CLEAR     78  66  66 E6        29.93F HX  80
CHETEK         CLEAR     79  69  71 SE5       29.92S HX  81
LADYSMITH      CLEAR     79  67  66 S5        29.96S HX  82
EAU CLAIRE     NOT AVBL
MENOMONIE      CLEAR     80  69  69 E8        29.91S HX  82
NEW RICHMOND   CLEAR     78  68  69 E7        29.91R HX  80
OSCEOLA        CLEAR     80  68  67 E7        29.92S HX  82
$$

WIZ003>005-009-010-017-018-040100-
NORTH CENTRAL WISCONSIN

CITY           SKY/WX    TMP DP  RH WIND       PRES   REMARKS
MANITOWISH WTR CLEAR     76  65  69 SE3       29.98S
ARBOR VITAE    CLEAR     77  67  70 SE7       29.99R
WOODRUFF       CLEAR     77  67  70 SE7       29.99R
RHINELANDER    CLEAR     73  64  73 E5        29.99S
6HR MIN TEMP:  73; 6HR MAX TEMP:  79;

EAGLE RIVER    CLEAR     74  60  61 CALM      29.99R
LAND O LAKES   CLEAR     76  63  64 SE3       30.00S
PHILLIPS       CLEAR     77  65  66 E3        29.96S
6HR MIN TEMP:  77; 6HR MAX TEMP:  80;

TOMAHAWK       CLEAR     74  64  72 E5        29.98S
MEDFORD        CLEAR     73  67  79 SE3       29.96F
MERRILL        CLEAR     73  67  79 SE3       29.97S
$$

WIZ029-030-035-036-043>047-040100-
CENTRAL WISCONSIN

CITY           SKY/WX    TMP DP  RH WIND       PRES   REMARKS
WAUSAU         CLEAR     74  65  73 SE6       29.95S
6HR MIN TEMP:  72; 6HR MAX TEMP:  79;

MOSINEE        NOT AVBL
MARSHFIELD     CLEAR     75  63  66 E9        29.95F
6HR MIN TEMP:  72; 6HR MAX TEMP:  79;

STEVENS POINT  PTCLDY    71  65  80 E7        29.96F
WAUPACA        CLEAR     75  68  78 N3        29.95F
WAUTOMA        NOT AVBL
WISC RAPIDS    CLEAR     75  64  68 E9        29.95F
6HR MIN TEMP:  75; 6HR MAX TEMP:  83;

CAMP DOUGLAS   NOT AVBL
$$

WIZ011>013-019>022-031-037>040-048>050-040100-
NORTHEAST WISCONSIN

CITY           SKY/WX    TMP DP  RH WIND       PRES   REMARKS
ANTIGO         CLEAR     73  65  76 E3        29.98F
SHAWANO        NOT AVBL
OCONTO         CLEAR     74  67  77 E5        29.93S
STURGEON BAY   CLEAR     70  63  78 N6        29.96S
6HR MIN TEMP:  68; 6HR MAX TEMP:  73;

GREEN BAY      CLEAR     73  66  78 NE5       29.94S
6HR MIN TEMP:  73; 6HR MAX TEMP:  79;

MANITOWOC      NOT AVBL
APPLETON       MOCLDY    72  63  73 NW5       29.94S
CLINTONVILLE   MOCLDY    75  64  69 CALM      29.94F
OSHKOSH        PTCLDY    72  65  78 N6        29.94S
6HR MIN TEMP:  72; 6HR MAX TEMP:  76;

$$

WIZ032>034-041-042-053>061-040100-
SOUTHWEST WISCONSIN

CITY           SKY/WX    TMP DP  RH WIND       PRES   REMARKS
LA CROSSE      PTCLDY    84  71  65 E6        29.87S HX  89
6HR MIN TEMP:  84; 6HR MAX TEMP:  89;

SPARTA         CLEAR     83  68  60 E5        29.91S HX  85
VIROQUA          N/A     81  74  79 E6        29.92S HX  86
BOSCOBEL       PTCLDY    88  75  65 CALM      29.87S HX  97
6HR MIN TEMP:  88; 6HR MAX TEMP:  94;

PRAIRIE DU CHI CLEAR     88  70  55 CALM      29.86S HX  93
PLATTEVILLE    PTCLDY    86  75  69 CALM      29.90S HX  95
$$

WIZ056-057-062-063-064-067-068-040100-
SOUTH CENTRAL WISCONSIN

CITY           SKY/WX    TMP DP  RH WIND       PRES   REMARKS
REEDSBURG      PTCLDY    82  72  71 E3        29.91S HX  87
BARABOO/DELLS  PTCLDY    80  67  65 E8        29.92S HX  82
LONE ROCK      NOT AVBL
MINERAL POINT  CLEAR     88  72  58 CALM      29.91S HX  94
MADISON        MOCLDY    77  68  73 NE12      29.91S
6HR MIN TEMP:  77; 6HR MAX TEMP:  88;

MIDDLETON      PTCLDY    82  71  69 NE7       29.92R HX  86
WATERTOWN      CLEAR     76  71  85 NE8       29.92R
MONROE         PTCLDY    86  72  62 W6        29.90S HX  92
JANESVILLE     MOCLDY    82  73  74 CALM      29.89S HX  88
$$

WIZ051-052-058>065-066-070>072-040100-
SOUTHEAST WISCONSIN

CITY           SKY/WX    TMP DP  RH WIND       PRES   REMARKS
MILWAUKEE      PTCLDY    68  63  84 NE7       29.92S
6HR MIN TEMP:  68; 6HR MAX TEMP:  82;

WAUKESHA       MOCLDY    75  66  73 N7        29.94R
MILWAUKEE/TIMM PTCLDY    73  64  73 E5        29.93R
RACINE         CLEAR     70  64  81 NE9       29.93S
6HR MIN TEMP:  70; 6HR MAX TEMP:  89; 6HR PCP: TRACE;

BURLINGTON     PTCLDY    74  68  80 E9        29.92R
KENOSHA        PTCLDY    72  66  81 NE9       29.92R
6HR MIN TEMP:  72; 6HR MAX TEMP:  90;

FOND DU LAC    PTCLDY    73  66  78 N9        29.94S
6HR MIN TEMP:  73; 6HR MAX TEMP:  77;

SHEBOYGAN      MOCLDY    66  64  93 E8        29.94R
6HR MIN TEMP:  66; 6HR MAX TEMP:  78;

WEST BEND      CLEAR     73  63  68 CALM      29.94R
JUNEAU         CLEAR     74  67  76 N7        29.95R
$$

LSZ147-162-040100-
LAKE SUPERIOR

STATION/POSITION TIME  TEMP    WIND        PRES    WAVE
                       AIR SEA DIR/SP/G            HT/PER
                 (UTC) (F)     (DEG/KT/KT) (MB)    (FT/S)
W MID LAKE BUOY  2250   59 57   40/  8/  8 1015.1F   0
DEVILS ISLAND    2300   60      70/  8/  8 1015.1F
PORT WING        2300   58      30/ 15/ 17 1014.2
SAXON HARBOR     2300   62        CALM     1014.6S
$$

LMZ867-665-643>646-040100-
LAKE MICHIGAN

STATION/POSITION TIME  TEMP    WIND        PRES    WAVE
                       AIR SEA DIR/SP/G            HT/PER
                 (UTC) (F)     (DEG/KT/KT) (MB)    (FT/S)
CHAMBERS ISLAND  2300   70     360/  3/  4 1013.9S
S GREEN BAY BUOY 2330   69 67   40/  8/ 10 1015.1S
N MID LAKE BUOY  2250   68 67  340/ 10/ 12 1013.0F   1/ 3
NORTHPORT PIER   2300   69     360/  5/  6 1013.5S
SISTER BAY       2311   71     360/  7/  8   N/A
ALGOMA LAKESHORE 2329           60/  8/ 10   N/A
KEWAUNEE LAKESHO 2300   65      20/  5/  9 1012.8R
SHEBOYGAN LAKESH 2300   60      10/  8/  9 1013.8R
PORT WASHINGTON  2300   63      40/  6/  7 1013.5S
ATWATER BUOY     2300   62     300/  4/  4 1014.6R
MILWAUKEE LAKESH 2310   64      50/  4/  4   N/A
S MID LAKE BUOY  2250   71 71   10/ 12/ 14 1012.1R
KENOSHA   LAKESH 2300   62     360/  9/ 12 1012.5R
$$

TC  - TEMPERATURE IN CELSIUS
VSB - VISIBILITY IN STATUTE MILES
WCI - WIND CHILL INDEX
HX  - HEAT INDEX



USA.gov is the U.S. government's official web portal to all federal, state and local government web resources and services.